Weather History for KRDG - December, 2013

Change the Weather History Date:

Monday, December 9, 2013

  Actual Average Record
Temperature  
Mean Temperature 32 °F 36 °F  
Max Temperature 35 °F 44 °F 71 °F (1966)
Min Temperature 29 °F 28 °F 0 °F (1989)
Degree Days  
Heating Degree Days 33 29  
Month to date heating degree days 229 252  
Since 1 July heating degree days 1278 1319  
Cooling Degree Days 0 0  
Month to date cooling degree days 0 0  
Year to date cooling degree days 1124 896  
Moisture  
Dew Point 31 °F    
Average Humidity 95    
Maximum Humidity 100    
Minimum Humidity 89    
Precipitation  
Precipitation 0.12 in 0.11 in 1.16 in (2009)
Month to date precipitation 1.20 1.05  
Year to date precipitation 38.58 41.03  
Sea Level Pressure  
Sea Level Pressure 30.12 in    
Wind  
Wind Speed 4 mph (NNW)    
Max Wind Speed 9 mph    
Max Gust Speed 13 mph    
Visibility 2 miles    
Events Fog , Rain    
T = Trace of Precipitation, MM = Missing Value Source: NWS Daily Summary

Daily Weather History Graph

Daily Weather History Graph

Search for Another Location

Airport or City:

Trip Planner

Search our weather history database for the weather conditions in past years. The results will help you decide how hot, cold, wet, or windy it might be!

Date:

Astronomy

Dec. 09, 2013 Rise Set
Actual Time 7:15 AM EST 4:37 PM EST
Civil Twilight 6:44 AM EST 5:07 PM EST
Nautical Twilight 6:10 AM EST 5:42 PM EST
Astronomical Twilight 5:37 AM EST 6:15 PM EST
Moon 12:06 PM EST (12/9) No Moon Set
Length of Visible Light 10h 23m
Length of Day
9h 22m
Waxing Crescent, 51% of the Moon is Illuminated
Dec 9
Waxing Crescent
Dec 17
Full
Dec 25
Last Quarter
Jan 1
New
Jan 7
First Quarter

Hourly Weather History & Observations

Time (EST) Temp. Windchill Dew Point Humidity Pressure Visibility Wind Dir Wind Speed Gust Speed Precip Events Conditions
12:25 AM 28.4 °F 21.2 °F 26.6 °F 93% 30.31 in 3.0 mi NNE 6.9 mph - 0.00 in Rain Light Freezing Rain
12:30 AM 28.4 °F 23.3 °F 26.6 °F 93% 30.30 in 2.5 mi NNE 4.6 mph - 0.00 in   Overcast
12:37 AM 28.4 °F 22.2 °F 26.6 °F 93% 30.30 in 2.0 mi NNE 5.8 mph - 0.00 in Rain Light Freezing Rain
12:54 AM 28.9 °F 22.8 °F 27.0 °F 92% 30.32 in 2.5 mi NNE 5.8 mph - 0.00 in Rain Light Freezing Rain
1:18 AM 28.4 °F 23.3 °F 26.6 °F 93% 30.27 in 3.0 mi NNE 4.6 mph - 0.00 in Rain Light Freezing Rain
1:54 AM 28.9 °F 21.9 °F 27.0 °F 92% 30.29 in 4.0 mi NNE 6.9 mph - 0.00 in Rain Light Freezing Rain
2:54 AM 30.0 °F 25.2 °F 28.0 °F 92% 30.24 in 5.0 mi NE 4.6 mph - 0.00 in   Overcast
3:40 AM 30.2 °F 25.4 °F 28.4 °F 93% 30.17 in 3.0 mi North 4.6 mph - 0.01 in Rain Light Freezing Rain
3:54 AM 30.9 °F 23.5 °F 28.9 °F 92% 30.21 in 4.0 mi North 8.1 mph - 0.01 in Rain Light Freezing Rain
4:06 AM 30.2 °F 25.4 °F 28.4 °F 93% 30.19 in 3.0 mi NNE 4.6 mph - 0.01 in Rain Light Freezing Rain
4:38 AM 32.0 °F 26.4 °F 30.2 °F 93% 30.16 in 4.0 mi North 5.8 mph - 0.05 in Rain Light Freezing Rain
4:54 AM 32.0 °F 26.4 °F 30.0 °F 92% 30.19 in 7.0 mi North 5.8 mph - 0.05 in   Overcast
5:33 AM 32.0 °F - 30.2 °F 93% 30.15 in 4.0 mi Calm Calm - 0.00 in Rain Light Freezing Rain
5:54 AM 32.0 °F 26.4 °F 30.0 °F 92% 30.18 in 4.0 mi North 5.8 mph - 0.01 in Rain Light Freezing Rain
6:54 AM 33.1 °F 27.7 °F 30.9 °F 92% 30.17 in 3.0 mi North 5.8 mph - 0.02 in Rain Light Freezing Rain
7:07 AM 33.8 °F 30.8 °F 30.2 °F 87% 30.12 in 4.0 mi ENE 3.5 mph - 0.02 in Rain Light Freezing Rain
7:12 AM 33.8 °F 29.6 °F 30.2 °F 87% 30.12 in 2.0 mi NE 4.6 mph - 0.02 in Rain Light Freezing Rain
7:21 AM 33.8 °F 29.6 °F 30.2 °F 87% 30.11 in 2.0 mi ENE 4.6 mph - 0.02 in Rain Light Freezing Rain
7:31 AM 33.8 °F 30.8 °F 30.2 °F 87% 30.11 in 2.0 mi North 3.5 mph - 0.02 in   Overcast
7:38 AM 33.8 °F 30.8 °F 32.0 °F 93% 30.10 in 2.0 mi NE 3.5 mph - 0.02 in   Overcast
7:54 AM 33.1 °F - 32.0 °F 96% 30.13 in 2.0 mi Calm Calm - 0.02 in   Overcast
8:15 AM 33.8 °F 30.8 °F 30.2 °F 87% 30.10 in 2.0 mi North 3.5 mph - N/A   Overcast
8:33 AM 33.8 °F 30.8 °F 30.2 °F 87% 30.11 in 2.0 mi North 3.5 mph - N/A   Overcast
8:54 AM 33.1 °F 30.0 °F 30.9 °F 92% 30.12 in 2.0 mi NNE 3.5 mph - N/A   Overcast
9:54 AM 33.1 °F - 32.0 °F 96% 30.12 in 2.0 mi Calm Calm - 0.01 in Rain Light Rain
10:09 AM 33.8 °F - 30.2 °F 87% 30.09 in 2.0 mi Calm Calm - 0.00 in Rain Light Rain
10:54 AM 34.0 °F 28.8 °F 32.0 °F 92% 30.11 in 2.0 mi NNW 5.8 mph - 0.00 in   Overcast
11:54 AM 34.0 °F - 32.0 °F 92% 30.06 in 2.0 mi Calm Calm - N/A   Overcast
12:54 PM 34.0 °F - 32.0 °F 92% 30.06 in 1.2 mi Calm Calm - N/A   Overcast
12:58 PM 33.8 °F 30.8 °F 32.0 °F 93% 30.03 in 0.8 mi WSW 3.5 mph - N/A   Overcast
1:16 PM 33.8 °F - 33.8 °F 100% 30.01 in 0.5 mi Calm Calm - N/A Fog Fog
1:54 PM 34.0 °F - 33.1 °F 96% 30.03 in 0.2 mi Calm Calm - N/A Fog Fog
2:54 PM 35.1 °F - 33.1 °F 92% 30.05 in 0.2 mi Calm Calm - N/A Fog Fog
3:02 PM 35.6 °F - 33.8 °F 93% 30.02 in 0.5 mi Calm Calm - N/A Fog Fog
3:13 PM 35.6 °F 32.8 °F 33.8 °F 93% 30.01 in 1.0 mi West 3.5 mph - N/A   Overcast
3:26 PM 35.6 °F 32.8 °F 33.8 °F 93% 30.01 in 3.0 mi West 3.5 mph - N/A   Overcast
3:43 PM 35.6 °F 30.7 °F 33.8 °F 93% 30.01 in 1.0 mi West 5.8 mph - N/A   Overcast
3:54 PM 35.1 °F 30.1 °F 33.1 °F 92% 30.04 in 1.0 mi West 5.8 mph - N/A   Overcast
4:31 PM 33.8 °F 29.6 °F 32.0 °F 93% 30.01 in 1.0 mi West 4.6 mph - N/A   Overcast
4:54 PM 34.0 °F 28.0 °F 32.0 °F 92% 30.04 in 1.0 mi West 6.9 mph - N/A   Overcast
5:54 PM 34.0 °F 28.8 °F 32.0 °F 92% 30.05 in 1.0 mi West 5.8 mph - N/A   Overcast
6:54 PM 34.0 °F 28.0 °F 33.1 °F 96% 30.07 in 1.0 mi West 6.9 mph - N/A   Overcast
7:54 PM 34.0 °F 27.2 °F 33.1 °F 96% 30.09 in 1.5 mi West 8.1 mph - N/A   Overcast
8:54 PM 34.0 °F 29.8 °F 33.1 °F 96% 30.08 in 1.5 mi West 4.6 mph - N/A   Overcast
9:23 PM 33.8 °F 30.8 °F 32.0 °F 93% 30.05 in 0.8 mi WSW 3.5 mph - N/A   Mist
9:54 PM 34.0 °F 31.0 °F 32.0 °F 92% 30.09 in 0.5 mi West 3.5 mph - N/A Fog Fog
10:01 PM 33.8 °F 28.6 °F 32.0 °F 93% 30.06 in 1.0 mi WSW 5.8 mph - N/A   Overcast
10:54 PM 33.1 °F 30.0 °F 32.0 °F 96% 30.08 in 1.8 mi West 3.5 mph - N/A   Overcast
11:52 PM 33.8 °F 30.8 °F 30.2 °F 87% 30.04 in 4.0 mi West 3.5 mph - N/A   Overcast
11:54 PM 33.1 °F 30.0 °F 30.9 °F 92% 30.07 in 4.0 mi West 3.5 mph - N/A   Overcast